Vertical_Velocity
-1 -1 -0 3 2 3 1 -1 5 0 -2 2 2 -3 1 1 -1 -1 -4 -1 -7 -2 -3 -3 -0 4 -3 -0 27 -13 1 4 0 1 -2 -1 -2 -6 5 2 -0 -4 2 -5 -0 8 -1
2 1 -2 1 -1 0 4 4 -2 0 4 1 1 -1 -1 1 2 2 0 -3 -6 -5 -4 -4 -2 -2 -5 8 -3 -10 1 3 -4 -1 -3 1 -4 -3 -1 3 -2 -6 -5 1 -0 5 -2
0 -3 -2 3 2 0 -0 2 2 -3 1 -0 -1 -2 2 -3 -3 -2 1 -1 -4 -5 -6 -7 -3 -8 -11 50 -16 1 5 -1 2 -4 1 -4 -6 0 -3 6 -4 1 -3 -7 8 1 -1
-0 0 -1 1 -1 -2 -3 1 -1 -0 -7 -5 -2 0 -4 -2 -6 1 -0 -4 3 -6 -7 -3 -7 -11 -17 24 -15 8 -14 8 -1 -3 -1 -0 -8 -1 1 1 0 -3 -6 3 10 -9 -3
-1 -1 -6 -0 4 -1 -2 -1 1 1 -0 -4 -3 0 2 -1 2 3 -2 -2 -2 -5 -5 -8 -1 -4 9 6 5 -12 11 4 -9 2 5 -8 -1 -4 -1 7 -6 4 -2 -3 -2 -3 -5
-1 -2 -8 -4 2 2 -8 -8 -3 -6 -6 -7 -4 -6 -2 2 -2 9 -0 1 4 8 1 -7 -2 11 -4 -4 10 -0 -2 -3 -1 -2 1 3 -9 -5 14 -3 3 -8 -11 -0 7 4 -12
-0 2 -5 -9 -3 -3 1 -6 -7 -5 -11 -6 -7 -4 -4 -1 5 3 10 8 3 2 8 11 7 10 -8 -1 11 6 -2 -4 -2 2 6 -2 -9 12 -9 -5 -7 2 3 -4 7 -2 -12
1 4 -4 -13 -6 -7 -4 -4 -7 -2 -5 -0 -2 0 -3 1 -0 -0 5 2 10 6 -18 33 5 -14 3 -1 -1 5 -2 1 5 6 -7 -2 -0 5 -6 -5 -1 -3 -0 6 10 -3 -15
-4 1 -1 -9 -6 -6 -10 -3 -6 -3 -1 2 -0 3 -1 0 -7 4 -1 20 -7 -9 7 20 -1 -3 30 -5 5 10 0 6 2 -1 2 -1 -4 8 -6 -4 1 5 -1 4 2 -4 -4
-7 1 1 6 -16 -1 -5 -1 -3 3 -1 1 1 -5 1 -5 -1 3 8 -3 -2 -5 -8 -28 9 -11 6 12 -23 20 3 7 -6 6 2 -16 15 0 0 1 0 -2 0 -1 4 -7 1
-5 -4 -1 -1 -2 -4 -4 1 -5 4 -2 -2 -2 1 3 12 2 2 6 8 8 5 -13 -2 -13 -20 4 -6 -7 9 15 -14 8 5 -9 19 6 -3 -5 20 -15 13 -3 -4 -1 1 -4
-6 -4 -6 -0 2 5 -2 -5 -0 -5 -9 -11 -6 0 2 30 6 2 29 6 4 3 -14 -7 -10 -4 -3 -1 -0 11 1 -2 -1 -3 -2 6 0 7 4 -0 -6 1 2 2 -0 2 -1
0 -8 -2 -6 -2 3 4 -2 2 -7 -14 -6 1 38 -3 0 -1 6 13 -4 14 -21 2 -7 -1 1 8 2 1 5 6 2 3 0 6 10 6 5 3 6 3 -0 0 2 -5 -3 6
0 -5 -1 -3 -4 1 1 -4 -0 -8 -3 10 10 34 3 13 4 11 16 15 -5 -2 9 -4 -1 0 6 -5 -1 2 4 -3 0 3 8 4 6 5 5 4 2 0 -5 -4 -7 -3 -3
1 -2 0 -6 -4 3 -2 -2 0 -1 -5 -3 -5 -3 -3 -3 9 2 -1 -9 10 4 3 0 9 3 7 6 4 -1 -3 5 3 6 7 5 4 7 3 5 4 -5 -3 -0 -5 -4 -11
-1 1 2 5 -5 0 -2 -1 -1 -1 -3 -2 -2 1 2 -1 6 1 -2 -0 4 5 4 -3 13 6 8 7 4 -1 7 4 8 9 11 7 6 1 -5 -0 -1 1 2 -1 -0 -10 -12
2 -1 6 4 -1 -2 0 -1 0 -3 -3 0 1 -2 3 -4 3 -2 -2 3 -1 7 2 5 10 9 2 3 2 4 5 7 8 6 4 7 3 7 1 -2 2 2 -2 -1 5 -4 -7
-4 -3 8 4 -0 -0 -0 -1 -2 -3 -2 -1 -0 -1 -1 -0 -2 2 -0 2 4 4 5 6 -1 14 3 5 3 4 5 5 4 0 4 6 1 8 3 1 1 -3 -5 1 -2 -1 -3
-8 2 2 4 0 2 -1 1 -3 -2 -3 -2 -2 -2 -0 6 -3 2 2 1 0 12 3 5 8 8 2 -1 -6 -2 1 -0 -2 -1 3 3 3 2 2 4 1 -1 1 -0 0 -4 5
1 3 -1 1 1 1 0 1 -1 -2 1 -1 -2 -3 -0 5 -1 -0 -1 1 1 4 1 4 2 4 4 3 1 5 -0 -2 2 1 0 -1 2 4 1 -3 -1 2 3 3 -6 -8 9
-4 -0 0 4 4 -0 1 -1 -0 -1 1 0 1 2 0 -1 -2 -1 1 0 3 1 4 4 2 2 2 1 1 -2 -1 -2 0 1 1 -1 -2 -2 2 -2 -2 1 12 1 -9 5 -22
2 2 2 -1 1 1 1 -1 0 -1 0 1 1 1 1 0 -1 0 4 5 3 6 2 2 1 -1 -3 -3 -4 -3 1 -1 1 -0 -2 3 0 1 9 -5 0 -2 5 -2 0 1 -6
4 4 -1 1 1 2 1 1 1 -1 3 3 2 3 0 0 1 3 3 5 5 2 -1 0 -0 -1 -2 -2 -1 1 0 -1 -1 -2 -1 0 -1 -1 8 -1 -5 -7 -0 -6 -4 -3 -6
3 2 1 2 1 2 2 2 1 0 4 0 1 3 1 3 3 3 2 -1 -1 -1 0 2 -0 -1 -0 -1 2 3 0 -1 -3 -0 -3 -2 -4 -3 1 0 0 -3 -8 -4 -1 -3 -1
1 2 3 2 0 2 2 2 1 1 1 -0 1 3 1 2 1 -2 -1 -2 1 1 -0 -2 1 3 3 3 3 2 0 -1 -3 0 -0 -1 -3 -6 -8 -5 -0 -6 5 -2 -14 3 -1
2 2 2 2 1 3 2 1 0 0 1 3 5 3 -0 1 2 1 3 2 1 2 2 2 2 1 1 -0 -1 -2 -2 0 -4 -1 -4 -3 -2 -5 -5 -6 -5 5 -3 -2 -9 0 -2
1 1 2 1 3 4 2 -2 1 3 3 2 1 2 1 0 1 1 1 1 2 1 1 4 2 0 -1 0 -2 -2 -1 -4 -5 -4 -2 -0 -7 -5 -3 -3 -2 0 2 -5 -3 -2 -0
1 2 1 2 2 4 0 1 2 7 3 2 2 2 2 1 1 1 -0 -0 0 -1 0 1 0 0 -0 -0 -1 -6 -3 -6 -2 -1 -0 -2 -5 -5 -4 -4 2 3 1 -5 -3 3 10
1 2 1 1 3 3 1 3 4 0 2 3 2 -1 1 2 3 1 3 -2 -0 1 -0 1 -0 -1 1 -2 -5 -0 -4 -0 -2 -2 -2 -0 -5 -4 -7 -3 -1 1 1 0 2 9 8
Height
5728 5728 5729 5729 5729 5730 5728 5728 5730 5731 5731 5730 5729 5729 5730 5730 5728 5729 5729 5728 5726 5727 5728 5729 5731 5731 5731 5733 5737 5733 5734 5736 5739 5739 5738 5739 5739 5738 5739 5741 5739 5739 5740 5739 5740 5740 5739
5715 5716 5716 5716 5717 5717 5717 5716 5715 5717 5717 5717 5717 5717 5716 5714 5714 5714 5715 5716 5715 5717 5718 5718 5720 5721 5722 5723 5723 5723 5722 5724 5726 5727 5728 5729 5728 5728 5729 5730 5730 5729 5729 5730 5729 5728 5728
5701 5702 5702 5701 5702 5702 5703 5704 5703 5704 5703 5702 5703 5702 5704 5703 5700 5699 5699 5698 5701 5703 5704 5707 5707 5708 5711 5717 5711 5712 5714 5711 5713 5715 5717 5716 5717 5718 5719 5719 5718 5718 5718 5718 5718 5717 5717
5685 5685 5685 5686 5687 5687 5688 5688 5688 5689 5688 5687 5685 5687 5686 5686 5685 5684 5684 5682 5682 5684 5688 5691 5694 5697 5701 5702 5700 5702 5702 5701 5702 5702 5704 5706 5706 5708 5709 5708 5708 5707 5707 5707 5707 5704 5705
5669 5668 5668 5670 5671 5671 5670 5672 5672 5670 5669 5669 5668 5668 5668 5665 5665 5664 5663 5663 5665 5665 5668 5671 5678 5682 5689 5687 5688 5688 5692 5690 5688 5691 5692 5693 5696 5697 5697 5697 5697 5696 5697 5695 5693 5692 5696
5652 5652 5652 5653 5654 5655 5655 5655 5656 5654 5653 5652 5650 5650 5650 5648 5645 5643 5643 5645 5645 5648 5648 5654 5657 5665 5671 5672 5673 5674 5677 5675 5677 5677 5680 5682 5685 5685 5686 5686 5687 5684 5683 5683 5683 5685 5684
5634 5635 5633 5635 5636 5637 5637 5637 5635 5635 5633 5630 5628 5626 5626 5625 5624 5622 5623 5625 5628 5627 5630 5640 5641 5646 5650 5655 5659 5659 5663 5663 5663 5665 5669 5671 5673 5676 5672 5673 5674 5673 5673 5673 5673 5672 5674
5619 5619 5616 5615 5619 5618 5618 5617 5616 5616 5615 5611 5608 5605 5605 5604 5604 5604 5607 5607 5607 5608 5614 5617 5622 5629 5634 5636 5643 5645 5648 5652 5652 5655 5655 5658 5662 5662 5661 5661 5662 5662 5662 5664 5664 5661 5662
5602 5602 5600 5597 5599 5601 5601 5600 5598 5594 5593 5590 5589 5587 5586 5587 5589 5592 5593 5593 5589 5592 5592 5606 5610 5615 5620 5618 5627 5631 5635 5638 5639 5642 5644 5648 5650 5647 5648 5649 5650 5651 5651 5654 5653 5652 5653
5582 5586 5585 5582 5582 5582 5582 5581 5581 5577 5576 5576 5574 5574 5573 5574 5575 5578 5580 5575 5577 5581 5576 5596 5598 5600 5604 5601 5613 5613 5618 5622 5626 5630 5631 5635 5636 5635 5636 5638 5640 5642 5642 5642 5644 5644 5647
5563 5568 5570 5571 5568 5566 5565 5564 5563 5564 5563 5563 5562 5562 5560 5562 5562 5566 5566 5565 5566 5570 5568 5579 5583 5589 5593 5596 5603 5602 5604 5607 5613 5616 5619 5626 5624 5624 5625 5630 5628 5633 5632 5634 5636 5637 5639
5547 5552 5555 5556 5556 5554 5549 5550 5550 5549 5549 5548 5547 5547 5548 5550 5552 5554 5554 5559 5560 5563 5564 5565 5571 5575 5579 5583 5586 5589 5592 5596 5600 5604 5609 5610 5611 5613 5616 5617 5617 5621 5625 5627 5629 5630 5630
5532 5536 5540 5542 5542 5542 5539 5540 5539 5537 5537 5534 5535 5533 5540 5542 5542 5545 5546 5550 5553 5553 5554 5556 5562 5565 5567 5569 5573 5576 5581 5585 5591 5594 5598 5600 5602 5603 5606 5609 5612 5615 5617 5618 5620 5621 5625
5519 5521 5525 5527 5529 5529 5529 5530 5528 5528 5528 5528 5528 5530 5532 5533 5534 5537 5539 5542 5544 5546 5547 5548 5553 5555 5556 5558 5562 5565 5569 5576 5580 5583 5587 5590 5593 5595 5599 5603 5605 5606 5608 5609 5610 5612 5615
5504 5508 5511 5514 5516 5518 5520 5519 5519 5519 5520 5520 5521 5522 5523 5525 5527 5528 5530 5531 5534 5536 5539 5540 5543 5545 5546 5548 5553 5554 5558 5563 5568 5573 5578 5582 5585 5588 5591 5593 5596 5597 5599 5602 5601 5603 5604
5487 5492 5497 5501 5504 5507 5508 5510 5510 5510 5511 5511 5512 5512 5514 5516 5519 5519 5520 5522 5524 5527 5529 5531 5537 5536 5538 5543 5546 5549 5553 5557 5560 5565 5569 5573 5577 5580 5582 5586 5587 5589 5593 5595 5594 5594 5594
5471 5477 5483 5488 5492 5496 5498 5500 5501 5501 5501 5502 5503 5504 5505 5508 5510 5510 5511 5514 5514 5517 5519 5524 5530 5530 5533 5537 5540 5545 5549 5552 5555 5559 5564 5567 5570 5575 5576 5578 5580 5582 5582 5585 5586 5587 5585
5456 5464 5470 5475 5480 5485 5487 5489 5491 5491 5492 5493 5495 5497 5499 5501 5501 5502 5503 5504 5504 5507 5511 5518 5523 5528 5531 5533 5536 5541 5544 5547 5551 5555 5559 5563 5564 5566 5569 5571 5573 5575 5576 5575 5573 5574 5574
5444 5452 5459 5464 5469 5474 5477 5479 5481 5482 5483 5485 5487 5488 5489 5492 5494 5495 5495 5496 5498 5504 5507 5513 5519 5523 5526 5529 5533 5536 5539 5542 5546 5551 5553 5556 5555 5558 5560 5564 5567 5568 5567 5565 5564 5564 5565
5432 5441 5448 5454 5459 5464 5468 5470 5473 5474 5475 5477 5479 5481 5483 5485 5486 5487 5488 5491 5494 5499 5505 5510 5515 5519 5524 5528 5531 5534 5537 5540 5543 5545 5547 5550 5552 5553 5555 5553 5554 5555 5554 5552 5552 5552 5552
5423 5431 5438 5444 5450 5455 5459 5462 5464 5466 5468 5470 5472 5474 5476 5477 5479 5482 5485 5490 5494 5499 5505 5509 5512 5516 5521 5525 5528 5530 5533 5535 5538 5540 5543 5545 5545 5545 5545 5544 5543 5543 5542 5540 5537 5538 5531
5415 5423 5430 5437 5442 5447 5451 5454 5457 5459 5461 5464 5466 5468 5471 5473 5476 5481 5486 5490 5494 5498 5502 5506 5510 5513 5517 5521 5525 5527 5531 5533 5535 5537 5537 5538 5538 5538 5536 5533 5532 5532 5529 5527 5525 5525 5519
5408 5415 5423 5429 5434 5439 5443 5447 5450 5453 5456 5458 5462 5464 5467 5471 5476 5482 5486 5490 5493 5496 5500 5504 5507 5511 5515 5519 5522 5525 5527 5529 5529 5529 5530 5531 5531 5530 5528 5525 5522 5522 5521 5519 5517 5512 5509
5402 5409 5416 5422 5427 5433 5437 5441 5445 5448 5452 5455 5458 5462 5466 5472 5476 5481 5485 5488 5492 5497 5501 5504 5508 5511 5515 5517 5520 5522 5523 5523 5523 5523 5523 5522 5520 5519 5517 5514 5513 5512 5513 5510 5509 5506 5503
5398 5405 5411 5416 5422 5427 5432 5436 5440 5443 5447 5451 5455 5462 5466 5470 5475 5479 5484 5488 5494 5497 5500 5504 5507 5510 5512 5515 5517 5518 5518 5519 5518 5518 5517 5515 5512 5511 5508 5506 5504 5504 5505 5505 5503 5503 5498
5394 5400 5406 5412 5417 5422 5427 5431 5435 5439 5444 5450 5456 5462 5467 5471 5475 5480 5485 5489 5493 5496 5500 5502 5505 5507 5510 5511 5512 5513 5513 5513 5512 5511 5509 5508 5508 5507 5502 5498 5498 5501 5501 5501 5501 5499 5497
5390 5396 5402 5408 5413 5419 5423 5427 5433 5438 5444 5450 5456 5462 5467 5471 5475 5480 5484 5489 5493 5497 5499 5501 5503 5506 5507 5508 5509 5509 5509 5507 5506 5505 5505 5505 5505 5504 5502 5501 5500 5499 5499 5499 5499 5501 5498
5387 5393 5399 5405 5410 5416 5420 5427 5433 5439 5445 5451 5457 5462 5468 5471 5476 5480 5485 5489 5492 5495 5497 5499 5501 5503 5503 5504 5505 5505 5503 5502 5501 5503 5503 5505 5505 5503 5502 5500 5500 5497 5498 5499 5499 5498 5500
5385 5391 5397 5403 5408 5414 5420 5427 5433 5439 5446 5452 5458 5462 5467 5473 5477 5481 5486 5488 5490 5492 5495 5496 5498 5500 5501 5502 5501 5500 5499 5499 5500 5502 5503 5505 5504 5502 5501 5500 5499 5498 5497 5498 5499 5500 5501